Location: Proctor
(47.8934°N, 114.3048°W)
Time: 00:57:55
(UTC+00:00)

LO-87 - Visible Passes

Search period start: 28 June 2022 00:00
Search period end: 08 July 2022 00:00
Orbit: 454 x 468 km, 97.4° (Epoch: 27 June)

Date Brightness Start Highest point End Pass type
(mag) Time Alt. Az. Time Alt. Az. Time Alt. Az.
28 Jun ? 06:15:13 18° E 06:16:32 22° ENE 06:19:18 10° NNE visible
28 Jun ? 07:49:06 26° WSW 07:49:25 26° W 07:52:24 10° NW visible
29 Jun ? 05:44:23 10° ENE 05:45:17 11° ENE 05:46:11 10° NE visible
29 Jun ? 07:17:14 55° SSW 07:17:45 65° WSW 07:21:12 10° NNW visible
30 Jun ? 06:45:21 38° ESE 06:46:12 48° ENE 06:49:34 10° N visible
30 Jun ? 08:19:14 12° W 08:19:28 12° W 08:21:00 10° WNW visible
01 Jul ? 06:13:27 17° E 06:14:46 21° ENE 06:17:29 10° NNE visible
01 Jul ? 07:47:20 27° WSW 07:47:37 28° W 07:50:39 10° NW visible
02 Jul ? 05:42:54 10° ENE 05:43:28 10° ENE 05:44:02 10° NE visible
02 Jul ? 07:15:25 58° SSW 07:15:54 70° WSW 07:19:22 10° NNW visible
03 Jul ? 06:43:29 37° ESE 06:44:19 45° ENE 06:47:39 10° N visible
03 Jul ? 08:17:21 13° W 08:17:32 13° W 08:19:16 10° WNW visible
04 Jul ? 06:11:32 17° E 06:12:51 20° ENE 06:15:28 10° NNE visible
04 Jul ? 07:45:25 29° WSW 07:45:40 29° W 07:48:45 10° NNW visible
05 Jul ? 07:13:27 62° SSW 07:13:54 75° WSW 07:17:23 10° NNW visible
06 Jul ? 06:41:28 36° ESE 06:42:15 42° ENE 06:45:35 10° N visible
06 Jul ? 08:15:20 14° W 08:15:28 14° W 08:17:21 10° WNW visible
07 Jul ? 06:09:28 16° E 06:10:45 19° ENE 06:13:18 10° NNE visible
07 Jul ? 07:43:20 31° WSW 07:43:32 31° W 07:46:40 10° NNW visible
